www.pogodaiklimat.ru

Погода и климат >> Архив погоды >> Иран >> Омидийе


ПОГОДА в Омидийе

  • Прогноз погоды в Омидийе
  • Монитор погоды в Омидийе

АРХИВ ПОГОДЫ в Омидийе

Время (UTC), дата Ветер
(напр.,м/с)
 
Видим.   Явления Облачность Т
(С)
Тd
(С)
f
(%)
Тe
(С)
Тes
(С)
Комфортность P
(гПа)
Po
(гПа)
Тmin
(С)
Tmax
(С)
R
(мм)
R24
(мм)
S
(см)
03 15.08 С 1 7000 м мгла ясно +31.4 +18.5 46 +36 +37 очень
душно
1000.6 997.7 +30.7 666
06 15.08 СЗ 3 7000 м мгла ясно +41.7 +15.1 21 +43 +53 опасность
перегрева
1001.9 998.9
09 15.08 СЗ 6 7000 м мгла ясно +46.5 +16.1 18 +48 +56 опасность
перегрева
1000.5 997.6
12 15.08 З 8 7000 м мгла ясно +48.1 +14.0 14 +48 +50 опасность
перегрева
998.1 995.2
15 15.08 СЗ 12 10 км ясно +45.6 +14.5 17 +46 +46 опасность
перегрева
997.5 994.6 +48.3
18 15.08 штиль 0 7000 м мгла ясно +39.3 +15.1 24 +40 +40 очень
душно
999.9 997.0
21 15.08 ЮВ 3 7000 м мгла ясно +35.8 +14.9 29 +37 +37 душно 999.9 997.0
00 16.08 Ю 3 7000 м мгла ясно +31.7 +20.9 53 +39 +39 очень
душно
999.6 996.7
03 16.08 ЮВ 3 3000 м мгла ясно +32.5 +23.4 59 +43 +44 опасность
перегрева
1000.1 997.2 +31.6
06 16.08 Ю 5 4000 м мгла ясно +38.4 +23.1 42 +48 +55 опасность
перегрева
1001.3 998.4
09 16.08 СЗ 3 8000 м мгла ясно +44.9 +13.9 17 +45 +62 опасность
перегрева
1000.6 997.7
12 16.08 СЗ 10 7000 м пыльный позёмок ясно +47.1 +11.5 13 +46 +47 опасность
перегрева
998.1 995.2
15 16.08 СЗ 9 7000 м пыльный позёмок 3/0
[Ci fib]
+43.7 +13.7 17 +44 +44 опасность
перегрева
997.7 994.8 +47.1 666
18 16.08 СЗ 8 10 км ясно +38.7 +10.6 19 +38 +38 очень
жарко
998.3 995.3
21 16.08 С 3 10 км ясно +33.4 +11.1 26 +33 +33 жарко 998.3 995.3
00 17.08 СЗ 3 10 км ясно +30.0 +10.8 30 +30 +30 жарко 998.0 995.0
03 17.08 СЗ 3 10 км ясно +29.7 +11.2 32 +30 +31 жарко 998.8 995.8 +28.7
06 17.08 СЗ 3 10 км ясно +38.8 +11.2 19 +38 +48 очень
жарко
999.6 996.7
09 17.08 З 7 10 км ясно +43.7 +11.1 15 +43 +48 опасность
перегрева
999.0 996.1 666
12 17.08 С 11 10 км 1/1 1200 м
[Cu hum]
+45.8 +9.0 11 +44 +44 опасность
перегрева
997.0 994.0
15 17.08 СЗ 10 10 км ясно +42.6 +8.6 13 +41 +41 опасность
перегрева
996.4 993.4 +45.8
18 17.08 С 5 10 км ясно +35.3 +8.4 19 +34 +34 очень
жарко
997.4 994.5
21 17.08 СЗ 4 10 км ясно +32.8 +7.4 21 +31 +31 жарко 998.5 995.6
00 18.08 С 3 10 км ясно +29.3 +8.1 26 +29 +29 жарко 998.6 995.6
03 18.08 С 3 10 км ясно +26.8 +9.3 33 +27 +28 жарко 999.4 996.4 +26.8
06 18.08 штиль 0 8000 м мгла ясно +38.2 +11.2 20 +37 +54 опасность
солнечного
удара
1000.5 997.6
09 18.08 СЗ 9 10 км ясно +42.8 +9.8 14 +41 +43 опасность
перегрева
1000.5 997.6
12 18.08 СЗ 7 10 км ясно +44.5 +10.1 13 +43 +46 опасность
перегрева
999.5 996.6
15 18.08 СЗ 6 10 км ясно +41.6 +9.5 15 +40 +40 очень
жарко
1000.0 997.1 +44.5
18 18.08 С 3 10 км ясно +36.5 +10.0 20 +35 +35 очень
жарко
1001.9 998.9
21 18.08 ЮВ 3 10 км ясно +31.6 +11.9 30 +32 +32 жарко 1002.4 999.4
00 19.08 штиль 0 10 км ясно +29.8 +12.3 34 +31 +31 жарко 1001.8 998.8
03 19.08 штиль 0 10 км ясно +27.3 +11.9 38 +28 +29 жарко 1003.2 1000.2 +27.2
06 19.08 ЮВ 1 10 км ясно +39.3 +14.6 23 +40 +54 опасность
солнечного
удара
1003.8 1000.8
09 19.08 З 2 10 км ясно +44.8 +11.4 14 +44 +63 опасность
перегрева
1003.2 1000.2
12 19.08 ЮЗ 3 10 км ясно +46.2 +10.8 13 +45 +53 опасность
перегрева
1002.0 999.0
15 19.08 СЗ 6 10 км ясно +43.4 +9.3 13 +42 +42 опасность
перегрева
1002.1 999.1 +46.2 666
18 19.08 ЮВ 1 10 км ясно +36.2 +16.7 32 +39 +39 очень
душно
1003.9 1000.9
21 19.08 Ю 2 10 км ясно +32.7 +15.9 36 +35 +35 душно 1003.5 1000.6
00 20.08 ЮВ 3 10 км ясно +30.0 +15.2 41 +33 +33 душно 1003.3 1000.3
03 20.08 Ю 3 10 км ясно +29.7 +15.0 41 +32 +33 душно 1003.7 1000.7 +27.8 666
06 20.08 ЮВ 2 8000 м мгла ясно +38.8 +16.8 28 +41 +54 опасность
перегрева
1004.8 1001.8
09 20.08 С 5 10 км ясно +45.3 +11.1 14 +44 +55 опасность
перегрева
1004.2 1001.3
12 20.08 З 7 10 км ясно +47.1 +10.1 12 +46 +48 опасность
перегрева
1002.5 999.6
15 20.08 З 7 10 км ясно +44.7 +8.2 11 +42 +42 опасность
перегрева
1001.9 999.0 +47.2
18 20.08 С 4 10 км ясно +37.7 +11.7 21 +37 +37 очень
жарко
1002.5 999.6
21 20.08 ЮВ 4 10 км ясно +31.6 +10.7 28 +32 +32 жарко 1002.8 999.8
00 21.08 ЮВ 4 8000 м мгла ясно +29.3 +15.8 44 +32 +32 душно 1002.8 999.8
03 21.08 ЮВ 3 7000 м мгла 1/1 1200 м
[Cu hum]
+29.4 +17.9 50 +34 +34 очень
душно
1002.8 999.8 +29.2
06 21.08 Ю 8 8000 м мгла 1/1 1200 м
[Cu hum]
+39.1 +17.8 29 +42 +44 опасность
перегрева
1003.9 1001.0
09 21.08 З 5 10 км 1/1 1200 м
[Sc diur, vesp]
+45.0 +14.6 17 +45 +55 опасность
перегрева
1003.3 1000.4
12 21.08 СЗ 8 10 км 1/1 1200 м
[Sc diur, vesp]
+47.7 +9.0 10 +46 +47 опасность
перегрева
1000.9 998.0
15 21.08 З 6 10 км 1/1 1200 м
[Sc diur, vesp]
+45.6 +8.2 11 +44 +44 опасность
перегрева
999.9 996.9 +47.9 666
18 21.08 Ю 2 10 км ясно +36.8 +9.7 19 +35 +35 очень
жарко
1000.5 997.6
21 21.08 ЮВ 6 10 км ясно +33.0 +14.1 32 +34 +34 очень
жарко
1001.0 998.0
00 22.08 ЮВ 5 8000 м мгла ясно +29.4 +18.6 52 +34 +34 очень
душно
1001.0 998.0

 

Местоположение метеостанции Омидийе (Иран): широта 30.77 долгота 49.67 высота над уровнем моря 27 м.

В архиве по умолчанию представлена погода в Омидийе за последнюю неделю. Архивные данные за месяц целиком и за предыдущие месяцы, начиная с января 2011 года, Вы можете получить, выбрав интересующий диапазон дат из раскрывающегося списка и нажав кнопку "Ввод!".


*Определитесь, кто Вы:
робот инопланетянин человек

Внимание! Время в таблицах - всемирное. Для получения местного времени необходимо прибавить поправку, которая равна 3.5 ч.

Смотрите также архив погоды в соседних городах и на ближайших метеорологических станциях:

Погода в Гечсаране (Иран) (112 км)
Погода в Ахвазе (Иран) (114 км)
Погода в Месджеде-Солеймане (Иран) (140 км)
Погода в Эль-Фао (Ирак) (143 км)
Погода в Абадане (Иран) (143 км)
Погода на Бубияне (Кувейт) (167 км)
Погода на Харке (Иран) (179 км)
Погода в Басре (Ирак) (182 км)
Погода в Ясудже (Иран) (183 км)
Погода в Басре аэропорт (Ирак) (183 км)

Пояснения к столбцам:

Ветер - указаны скорость ветра в м/с - средняя за 10 мин, порывы в срок и между сроками (в фигурных скобках) и направление, откуда дует ветер: С - северный, СВ - северо-восточный, В - восточный, ЮВ - юго-восточный, Ю - южный, ЮЗ - юго-западный, З - западный, СЗ - северо-западный.
Видимость - горизонтальная дальность видимости в метрах или километрах. При видимости от 1 до 10 км при отсутствии осадков обычно наблюдается дымка, при ухудшении видимости до 1 км и менее - туман. В сухую погоду видимость может ухудшаться дымом, пылью или мглою.
Явления - указаны атмосферные явления, наблюдавшиеся в срок или в последний час перед сроком; фигурными скобками обозначены явления, наблюдавшиеся между сроками (за 1-3 часа до срока); квадратными скобками обозначены град или гололедные отложения с указанием их диаметра в мм.
Облачность - указаны через наклонную черту общая и нижняя облачность в баллах и высота нижней границы облаков в метрах; квадратными скобками обозначены формы облаков: Ci - перистые, Cs - перисто-слоистые, Cc - перисто-кучевые, Ac - высококучевые, As - высокослоистые, Sc - слоисто-кучевые, Ns - слоисто-дождевые, Cu - кучевые, Cb - кучево-дождевые. Подробнее классификацию облаков см. в Атласе облаков (PDF).
T - Температура воздуха - температура, измеренная на высоте 2 м над землей.
Td - Температура точки росы - температура, при понижении до которой содержащийся в воздухе водяной пар достигнет насыщения.
f - Относительная влажность воздуха - влажноcть воздуха, измеренная на высоте 2 м над землей.
Te - Эффективная температура - температура, которую ощущает одетый по сезону человек в тени. Характеристика душности погоды. При расчете учитывается влияние влажности воздуха и скорости ветра на теплоощущения человека.
Tes - Эффективная температура на солнце - температура, которую ощущает человек, с поправкой на солнечный нагрев. Характеристика знойности погоды. Зависит от высоты солнца над горизонтом, облачности и скорости ветра. Ночью, в пасмурную погоду, а также при ветре 12 м/с и более поправка равна нулю.
P - Атмосферное давление - приведенное к уровню моря атмосферное давление.
Po - Атмосферное давление - измеренное на уровне метеостанции атмосферное давление.
Tmin - Минимальная температура - минимум температуры воздуха на высоте 2 м над землей.
Tmax - Максимальная температура - максимум температуры воздуха на высоте 2 м над землей.
R - Количество осадков - Количество выпавших осадков за период времени, мм. При наведении курсора мыши на число - период времени, за который выпало указанное количество осадков.
R24 - Количество осадков - Количество выпавших осадков за 24 часа, мм.
S - Снежный покров - Высота снежного покрова, см. При наведении курсора мыши на число - состояние снежного покрова и степень покрытия местности в баллах.